Time,TemperatureF,DewpointF,PressureIn,WindDirection,WindDirectionDegrees,WindSpeedMPH,WindSpeedGustMPH,Humidity,HourlyPrecipIn,Conditions,Clouds,dailyrainin,SoftwareType,DateUTC
2013-01-27 00:25:00,17.0,5.0,30.29,SE,135,1.0,1.0,63,0.00,,,0.00,TxWx,2013-01-27 05:25:00,
2013-01-27 00:30:00,17.0,5.0,30.29,East,90,1.0,1.0,63,0.00,,,0.00,TxWx,2013-01-27 05:30:00,
2013-01-27 00:37:00,17.0,6.0,30.29,SSE,157,1.0,1.0,63,0.00,,,0.00,TxWx,2013-01-27 05:37:00,
2013-01-27 00:43:00,16.0,5.0,30.29,SE,135,1.0,2.0,64,0.00,,,0.00,TxWx,2013-01-27 05:43:00,
2013-01-27 00:48:00,16.0,5.0,30.29,East,90,1.0,1.0,65,0.00,,,0.00,TxWx,2013-01-27 05:48:00,
2013-01-27 00:54:00,16.0,5.0,30.29,NNE,22,1.0,1.0,65,0.00,,,0.00,TxWx,2013-01-27 05:54:00,
2013-01-27 00:59:00,16.0,5.0,30.29,North,0,1.0,1.0,65,0.00,,,0.00,TxWx,2013-01-27 05:59:00,
2013-01-27 01:05:00,15.0,4.0,30.29,NE,45,2.0,3.0,65,0.00,,,0.00,TxWx,2013-01-27 06:05:00,
2013-01-27 01:10:00,15.0,5.0,30.29,NW,315,1.0,1.0,66,0.00,,,0.00,TxWx,2013-01-27 06:10:00,
2013-01-27 01:15:00,14.0,4.0,30.29,West,270,0.0,1.0,66,0.00,,,0.00,TxWx,2013-01-27 06:15:00,
2013-01-27 01:20:00,14.0,4.0,30.30,ENE,67,0.0,0.0,66,0.00,,,0.00,TxWx,2013-01-27 06:20:00,
2013-01-27 01:25:00,14.0,4.0,30.30,SSW,202,0.0,0.0,67,0.00,,,0.00,TxWx,2013-01-27 06:25:00,
2013-01-27 01:32:00,14.0,4.0,30.30,SSE,157,1.0,1.0,67,0.00,,,0.00,TxWx,2013-01-27 06:32:00,
2013-01-27 01:37:00,14.0,4.0,30.30,ESE,112,1.0,1.0,68,0.00,,,0.00,TxWx,2013-01-27 06:37:00,
2013-01-27 01:42:00,14.0,5.0,30.30,East,90,1.0,1.0,69,0.00,,,0.00,TxWx,2013-01-27 06:42:00,
2013-01-27 01:47:00,14.0,5.0,30.30,NE,45,1.0,2.0,69,0.00,,,0.00,TxWx,2013-01-27 06:47:00,
2013-01-27 01:52:00,14.0,5.0,30.30,East,90,0.0,1.0,69,0.00,,,0.00,TxWx,2013-01-27 06:52:00,
2013-01-27 01:58:00,14.0,5.0,30.31,NE,45,1.0,1.0,69,0.00,,,0.00,TxWx,2013-01-27 06:58:00,
2013-01-27 02:03:00,14.0,5.0,30.31,NNE,22,1.0,1.0,70,0.00,,,0.00,TxWx,2013-01-27 07:03:00,
2013-01-27 02:08:00,14.0,5.0,30.31,NNE,22,1.0,3.0,70,0.00,,,0.00,TxWx,2013-01-27 07:08:00,
2013-01-27 02:13:00,14.0,5.0,30.31,West,270,1.0,1.0,70,0.00,,,0.00,TxWx,2013-01-27 07:13:00,
2013-01-27 02:19:00,14.0,5.0,30.31,ENE,67,1.0,1.0,70,0.00,,,0.00,TxWx,2013-01-27 07:19:00,
2013-01-27 02:24:00,14.0,5.0,30.31,NE,45,1.0,1.0,70,0.00,,,0.00,TxWx,2013-01-27 07:24:00,
2013-01-27 02:29:00,14.0,5.0,30.32,East,90,0.0,0.0,70,0.00,,,0.00,TxWx,2013-01-27 07:29:00,
2013-01-27 02:34:00,14.0,5.0,30.32,ENE,67,1.0,1.0,71,0.00,,,0.00,TxWx,2013-01-27 07:34:00,
2013-01-27 02:40:00,13.0,4.0,30.32,SW,225,2.0,3.0,70,0.00,,,0.00,TxWx,2013-01-27 07:40:00,
2013-01-27 02:45:00,13.0,4.0,30.32,South,180,1.0,1.0,71,0.00,,,0.00,TxWx,2013-01-27 07:45:00,
2013-01-27 02:50:00,14.0,5.0,30.32,South,180,0.0,0.0,71,0.00,,,0.00,TxWx,2013-01-27 07:50:00,
2013-01-27 02:55:00,14.0,5.0,30.32,SSW,202,1.0,1.0,71,0.00,,,0.00,TxWx,2013-01-27 07:55:00,
2013-01-27 03:01:00,14.0,5.0,30.32,South,180,1.0,1.0,72,0.00,,,0.00,TxWx,2013-01-27 08:01:00,
2013-01-27 03:06:00,14.0,6.0,30.33,East,90,0.0,0.0,72,0.00,,,0.00,TxWx,2013-01-27 08:06:00,
2013-01-27 03:11:00,14.0,6.0,30.32,East,90,1.0,1.0,72,0.00,,,0.00,TxWx,2013-01-27 08:11:00,
2013-01-27 03:17:00,15.0,7.0,30.32,NNE,22,1.0,1.0,73,0.00,,,0.00,TxWx,2013-01-27 08:17:00,
2013-01-27 03:22:00,15.0,7.0,30.33,West,270,1.0,1.0,73,0.00,,,0.00,TxWx,2013-01-27 08:22:00,
2013-01-27 03:27:00,14.0,6.0,30.32,SW,225,1.0,2.0,72,0.00,,,0.00,TxWx,2013-01-27 08:27:00,
2013-01-27 03:32:00,14.0,6.0,30.32,ESE,112,1.0,1.0,73,0.00,,,0.00,TxWx,2013-01-27 08:32:00,
2013-01-27 03:37:00,15.0,7.0,30.32,ENE,67,0.0,0.0,73,0.00,,,0.00,TxWx,2013-01-27 08:37:00,
2013-01-27 03:43:00,14.0,6.0,30.32,NNE,22,1.0,1.0,73,0.00,,,0.00,TxWx,2013-01-27 08:43:00,
2013-01-27 03:48:00,14.0,6.0,30.32,North,0,0.0,0.0,73,0.00,,,0.00,TxWx,2013-01-27 08:48:00,
2013-01-27 03:53:00,14.0,6.0,30.33,SE,135,0.0,1.0,73,0.00,,,0.00,TxWx,2013-01-27 08:53:00,
2013-01-27 03:58:00,14.0,6.0,30.33,NE,45,1.0,1.0,74,0.00,,,0.00,TxWx,2013-01-27 08:58:00,
2013-01-27 04:04:00,14.0,6.0,30.33,South,180,0.0,0.0,74,0.00,,,0.00,TxWx,2013-01-27 09:04:00,
2013-01-27 04:09:00,13.0,5.0,30.33,SE,135,2.0,3.0,74,0.00,,,0.00,TxWx,2013-01-27 09:09:00,
2013-01-27 04:14:00,13.0,5.0,30.33,ESE,112,3.0,3.0,75,0.00,,,0.00,TxWx,2013-01-27 09:14:00,
2013-01-27 04:19:00,13.0,5.0,30.33,SE,135,1.0,1.0,75,0.00,,,0.00,TxWx,2013-01-27 09:19:00,
2013-01-27 04:24:00,13.0,6.0,30.33,SE,135,0.0,1.0,75,0.00,,,0.00,TxWx,2013-01-27 09:24:00,
2013-01-27 04:30:00,13.0,6.0,30.33,WSW,247,0.0,0.0,75,0.00,,,0.00,TxWx,2013-01-27 09:30:00,
2013-01-27 04:35:00,13.0,6.0,30.33,South,180,0.0,0.0,75,0.00,,,0.00,TxWx,2013-01-27 09:35:00,
2013-01-27 04:40:00,13.0,6.0,30.33,WNW,292,0.0,0.0,76,0.00,,,0.00,TxWx,2013-01-27 09:40:00,
2013-01-27 04:46:00,13.0,6.0,30.33,WNW,292,0.0,0.0,76,0.00,,,0.00,TxWx,2013-01-27 09:46:00,
2013-01-27 04:51:00,13.0,6.0,30.33,North,0,0.0,0.0,76,0.00,,,0.00,TxWx,2013-01-27 09:51:00,
2013-01-27 04:56:00,13.0,5.0,30.34,North,0,0.0,0.0,76,0.00,,,0.00,TxWx,2013-01-27 09:56:00,
2013-01-27 05:01:00,13.0,6.0,30.34,SSW,202,1.0,1.0,76,0.00,,,0.00,TxWx,2013-01-27 10:01:00,
2013-01-27 05:07:00,13.0,6.0,30.34,South,180,0.0,1.0,76,0.00,,,0.00,TxWx,2013-01-27 10:07:00,
2013-01-27 05:12:00,13.0,6.0,30.34,South,180,0.0,1.0,76,0.00,,,0.00,TxWx,2013-01-27 10:12:00,
2013-01-27 05:17:00,12.0,5.0,30.34,SSW,202,1.0,2.0,76,0.00,,,0.00,TxWx,2013-01-27 10:17:00,
2013-01-27 05:22:00,12.0,5.0,30.34,South,180,0.0,0.0,76,0.00,,,0.00,TxWx,2013-01-27 10:22:00,
2013-01-27 05:27:00,12.0,5.0,30.34,SE,135,1.0,1.0,76,0.00,,,0.00,TxWx,2013-01-27 10:27:00,
2013-01-27 05:32:00,12.0,5.0,30.34,South,180,1.0,1.0,77,0.00,,,0.00,TxWx,2013-01-27 10:32:00,
2013-01-27 05:37:00,12.0,5.0,30.35,SE,135,1.0,1.0,77,0.00,,,0.00,TxWx,2013-01-27 10:37:00,
2013-01-27 05:43:00,12.0,5.0,30.35,South,180,1.0,1.0,77,0.00,,,0.00,TxWx,2013-01-27 10:43:00,
2013-01-27 05:48:00,12.0,5.0,30.35,SE,135,1.0,1.0,77,0.00,,,0.00,TxWx,2013-01-27 10:48:00,
2013-01-27 05:53:00,12.0,5.0,30.35,SSW,202,1.0,1.0,78,0.00,,,0.00,TxWx,2013-01-27 10:53:00,
2013-01-27 05:59:00,13.0,6.0,30.35,WNW,292,1.0,1.0,78,0.00,,,0.00,TxWx,2013-01-27 10:59:00,
2013-01-27 06:04:00,13.0,6.0,30.36,WSW,247,1.0,1.0,78,0.00,,,0.00,TxWx,2013-01-27 11:04:00,
2013-01-27 06:09:00,13.0,6.0,30.36,WSW,247,0.0,1.0,78,0.00,,,0.00,TxWx,2013-01-27 11:09:00,
2013-01-27 06:14:00,13.0,7.0,30.36,East,90,0.0,1.0,79,0.00,,,0.00,TxWx,2013-01-27 11:14:00,
2013-01-27 06:19:00,14.0,8.0,30.36,NNE,22,1.0,2.0,79,0.00,,,0.00,TxWx,2013-01-27 11:19:00,
2013-01-27 06:25:00,14.0,8.0,30.36,North,0,0.0,0.0,79,0.00,,,0.00,TxWx,2013-01-27 11:25:00,
2013-01-27 06:30:00,14.0,8.0,30.37,NNE,22,1.0,2.0,79,0.00,,,0.00,TxWx,2013-01-27 11:30:00,
2013-01-27 06:35:00,14.0,8.0,30.37,WNW,292,1.0,1.0,79,0.00,,,0.00,TxWx,2013-01-27 11:35:00,
2013-01-27 06:41:00,15.0,9.0,30.37,NNE,22,3.0,3.0,79,0.00,,,0.00,TxWx,2013-01-27 11:41:00,
2013-01-27 06:46:00,15.0,9.0,30.37,NNE,22,4.0,5.0,79,0.00,,,0.00,TxWx,2013-01-27 11:46:00,
2013-01-27 06:51:00,16.0,10.0,30.37,NNW,337,3.0,5.0,80,0.00,,,0.00,TxWx,2013-01-27 11:51:00,
2013-01-27 06:57:00,17.0,11.0,30.37,NNE,22,4.0,4.0,79,0.00,,,0.00,TxWx,2013-01-27 11:57:00,
2013-01-27 07:02:00,18.0,12.0,30.37,North,0,4.0,4.0,80,0.00,,,0.00,TxWx,2013-01-27 12:02:00,
2013-01-27 07:07:00,18.0,12.0,30.37,North,0,7.0,10.0,80,0.00,,,0.00,TxWx,2013-01-27 12:07:00,
2013-01-27 07:12:00,19.0,13.0,30.38,North,0,5.0,6.0,79,0.00,,,0.00,TxWx,2013-01-27 12:12:00,
2013-01-27 07:17:00,19.0,12.0,30.38,NNE,22,6.0,7.0,79,0.00,,,0.00,TxWx,2013-01-27 12:17:00,
2013-01-27 07:22:00,19.0,12.0,30.39,NNE,22,5.0,8.0,78,0.00,,,0.00,TxWx,2013-01-27 12:22:00,
2013-01-27 07:27:00,19.0,12.0,30.39,North,0,6.0,7.0,77,0.00,,,0.00,TxWx,2013-01-27 12:27:00,
2013-01-27 07:33:00,19.0,12.0,30.39,NNE,22,5.0,7.0,77,0.00,,,0.00,TxWx,2013-01-27 12:33:00,
2013-01-27 07:38:00,19.0,12.0,30.39,NE,45,5.0,6.0,76,0.00,,,0.00,TxWx,2013-01-27 12:38:00,
2013-01-27 07:43:00,19.0,12.0,30.39,NNW,337,5.0,6.0,76,0.00,,,0.00,TxWx,2013-01-27 12:43:00,
2013-01-27 07:48:00,19.0,11.0,30.39,NNE,22,6.0,7.0,75,0.00,,,0.00,TxWx,2013-01-27 12:48:00,
2013-01-27 07:53:00,20.0,12.0,30.40,ENE,67,6.0,6.0,75,0.00,,,0.00,TxWx,2013-01-27 12:53:00,
2013-01-27 07:59:00,20.0,12.0,30.40,North,0,5.0,6.0,74,0.00,,,0.00,TxWx,2013-01-27 12:59:00,
2013-01-27 08:04:00,20.0,12.0,30.40,NNE,22,7.0,8.0,73,0.00,,,0.00,TxWx,2013-01-27 13:04:00,
2013-01-27 08:09:00,21.0,12.0,30.40,NNE,22,7.0,7.0,72,0.00,,,0.00,TxWx,2013-01-27 13:09:00,
2013-01-27 08:14:00,21.0,12.0,30.40,NNE,22,5.0,6.0,71,0.00,,,0.00,TxWx,2013-01-27 13:14:00,
2013-01-27 08:20:00,21.0,12.0,30.40,North,0,6.0,7.0,71,0.00,,,0.00,TxWx,2013-01-27 13:20:00,
2013-01-27 08:25:00,21.0,12.0,30.40,NNE,22,5.0,5.0,70,0.00,,,0.00,TxWx,2013-01-27 13:25:00,
2013-01-27 08:30:00,22.0,12.0,30.41,NNE,22,5.0,5.0,69,0.00,,,0.00,TxWx,2013-01-27 13:30:00,
2013-01-27 08:35:00,22.0,12.0,30.41,NNE,22,5.0,6.0,69,0.00,,,0.00,TxWx,2013-01-27 13:35:00,
2013-01-27 08:41:00,22.0,12.0,30.41,NE,45,3.0,5.0,68,0.00,,,0.00,TxWx,2013-01-27 13:41:00,
2013-01-27 08:46:00,23.0,13.0,30.41,North,0,6.0,8.0,67,0.00,,,0.00,TxWx,2013-01-27 13:46:00,
2013-01-27 08:51:00,23.0,12.0,30.41,NNW,337,8.0,8.0,66,0.00,,,0.00,TxWx,2013-01-27 13:51:00,
2013-01-27 08:56:00,23.0,12.0,30.41,NNE,22,9.0,10.0,64,0.00,,,0.00,TxWx,2013-01-27 13:56:00,
2013-01-27 09:01:00,24.0,12.0,30.41,North,0,10.0,12.0,63,0.00,,,0.00,TxWx,2013-01-27 14:01:00,
2013-01-27 09:06:00,24.0,12.0,30.41,North,0,9.0,11.0,62,0.00,,,0.00,TxWx,2013-01-27 14:06:00,
2013-01-27 09:12:00,24.0,11.0,30.41,NW,315,5.0,6.0,60,0.00,,,0.00,TxWx,2013-01-27 14:12:00,
2013-01-27 09:17:00,24.0,10.0,30.41,North,0,7.0,9.0,58,0.00,,,0.00,TxWx,2013-01-27 14:17:00,
2013-01-27 09:22:00,24.0,10.0,30.42,NNW,337,6.0,11.0,57,0.00,,,0.00,TxWx,2013-01-27 14:22:00,
2013-01-27 09:27:00,25.0,11.0,30.42,NW,315,6.0,8.0,56,0.00,,,0.00,TxWx,2013-01-27 14:27:00,
2013-01-27 09:32:00,25.0,10.0,30.42,WNW,292,7.0,8.0,55,0.00,,,0.00,TxWx,2013-01-27 14:32:00,
2013-01-27 09:37:00,25.0,9.0,30.42,NW,315,10.0,11.0,52,0.00,,,0.00,TxWx,2013-01-27 14:37:00,
2013-01-27 09:43:00,26.0,9.0,30.42,NNW,337,10.0,11.0,51,0.00,,,0.00,TxWx,2013-01-27 14:43:00,
2013-01-27 09:48:00,26.0,8.0,30.42,NNW,337,10.0,12.0,49,0.00,,,0.00,TxWx,2013-01-27 14:48:00,
2013-01-27 09:53:00,26.0,7.0,30.42,WNW,292,11.0,13.0,46,0.00,,,0.00,TxWx,2013-01-27 14:53:00,
2013-01-27 09:58:00,26.0,7.0,30.43,NW,315,12.0,12.0,47,0.00,,,0.00,TxWx,2013-01-27 14:58:00,
2013-01-27 10:03:00,26.0,7.0,30.43,NNW,337,9.0,10.0,46,0.00,,,0.00,TxWx,2013-01-27 15:03:00,
2013-01-27 10:08:00,27.0,7.0,30.43,North,0,6.0,10.0,44,0.00,,,0.00,TxWx,2013-01-27 15:08:00,
2013-01-27 10:13:00,27.0,6.0,30.43,WNW,292,11.0,11.0,43,0.00,,,0.00,TxWx,2013-01-27 15:13:00,
2013-01-27 10:18:00,27.0,6.0,30.43,NW,315,8.0,10.0,42,0.00,,,0.00,TxWx,2013-01-27 15:18:00,
2013-01-27 10:24:00,27.0,5.0,30.44,NW,315,5.0,8.0,41,0.00,,,0.00,TxWx,2013-01-27 15:24:00,
2013-01-27 10:29:00,28.0,5.0,30.44,North,0,14.0,14.0,39,0.00,,,0.00,TxWx,2013-01-27 15:29:00,
2013-01-27 10:34:00,28.0,4.0,30.44,North,0,13.0,14.0,38,0.00,,,0.00,TxWx,2013-01-27 15:34:00,
2013-01-27 10:39:00,28.0,3.0,30.44,NW,315,13.0,14.0,36,0.00,,,0.00,TxWx,2013-01-27 15:39:00,
2013-01-27 10:45:00,28.0,4.0,30.44,NNW,337,10.0,10.0,37,0.00,,,0.00,TxWx,2013-01-27 15:45:00,
2013-01-27 10:50:00,28.0,3.0,30.44,WNW,292,10.0,14.0,36,0.00,,,0.00,TxWx,2013-01-27 15:50:00,
2013-01-27 10:55:00,28.0,2.0,30.44,NNW,337,11.0,14.0,34,0.00,,,0.00,TxWx,2013-01-27 15:55:00,
2013-01-27 11:00:00,29.0,3.0,30.44,ENE,67,11.0,11.0,35,0.00,,,0.00,TxWx,2013-01-27 16:00:00,
2013-01-27 11:06:00,29.0,3.0,30.44,NNW,337,11.0,12.0,35,0.00,,,0.00,TxWx,2013-01-27 16:06:00,
2013-01-27 11:11:00,29.0,3.0,30.44,NW,315,7.0,8.0,34,0.00,,,0.00,TxWx,2013-01-27 16:11:00,
2013-01-27 11:16:00,29.0,2.0,30.44,NNW,337,7.0,8.0,33,0.00,,,0.00,TxWx,2013-01-27 16:16:00,
2013-01-27 11:22:00,30.0,3.0,30.44,NNW,337,3.0,5.0,33,0.00,,,0.00,TxWx,2013-01-27 16:22:00,
2013-01-27 11:27:00,30.0,3.0,30.43,NNE,22,3.0,6.0,33,0.00,,,0.00,TxWx,2013-01-27 16:27:00,
2013-01-27 11:32:00,30.0,3.0,30.43,NNE,22,4.0,5.0,32,0.00,,,0.00,TxWx,2013-01-27 16:32:00,
2013-01-27 11:37:00,30.0,2.0,30.43,North,0,7.0,8.0,32,0.00,,,0.00,TxWx,2013-01-27 16:37:00,
2013-01-27 11:42:00,30.0,2.0,30.43,NNW,337,6.0,6.0,31,0.00,,,0.00,TxWx,2013-01-27 16:42:00,
2013-01-27 11:47:00,30.0,1.0,30.43,NNE,22,7.0,10.0,30,0.00,,,0.00,TxWx,2013-01-27 16:47:00,
2013-01-27 11:53:00,31.0,2.0,30.43,NNW,337,13.0,14.0,30,0.00,,,0.00,TxWx,2013-01-27 16:53:00,
2013-01-27 11:58:00,31.0,1.0,30.42,NW,315,8.0,10.0,29,0.00,,,0.00,TxWx,2013-01-27 16:58:00,
2013-01-27 12:03:00,31.0,1.0,30.42,NNW,337,10.0,11.0,29,0.00,,,0.00,TxWx,2013-01-27 17:03:00,
2013-01-27 12:08:00,31.0,1.0,30.42,WNW,292,8.0,10.0,29,0.00,,,0.00,TxWx,2013-01-27 17:08:00,
2013-01-27 12:14:00,31.0,1.0,30.42,North,0,9.0,9.0,29,0.00,,,0.00,TxWx,2013-01-27 17:14:00,
2013-01-27 12:19:00,32.0,2.0,30.42,NNE,22,10.0,13.0,29,0.00,,,0.00,TxWx,2013-01-27 17:19:00,
2013-01-27 12:24:00,32.0,2.0,30.42,NNW,337,3.0,3.0,29,0.00,,,0.00,TxWx,2013-01-27 17:24:00,
2013-01-27 12:29:00,32.0,2.0,30.41,NNW,337,8.0,12.0,28,0.00,,,0.00,TxWx,2013-01-27 17:29:00,
2013-01-27 12:34:00,32.0,2.0,30.41,NNW,337,7.0,8.0,28,0.00,,,0.00,TxWx,2013-01-27 17:34:00,
2013-01-27 12:40:00,32.0,2.0,30.41,NW,315,5.0,9.0,28,0.00,,,0.00,TxWx,2013-01-27 17:40:00,
2013-01-27 12:45:00,32.0,2.0,30.41,North,0,9.0,10.0,28,0.00,,,0.00,TxWx,2013-01-27 17:45:00,
2013-01-27 12:50:00,32.0,1.0,30.41,NNE,22,11.0,12.0,28,0.00,,,0.00,TxWx,2013-01-27 17:50:00,
2013-01-27 12:55:00,33.0,2.0,30.40,NNE,22,6.0,7.0,28,0.00,,,0.00,TxWx,2013-01-27 17:55:00,
2013-01-27 13:00:00,33.0,2.0,30.40,North,0,8.0,8.0,28,0.00,,,0.00,TxWx,2013-01-27 18:00:00,
2013-01-27 13:05:00,33.0,2.0,30.40,NE,45,6.0,11.0,28,0.00,,,0.00,TxWx,2013-01-27 18:05:00,
2013-01-27 13:10:00,33.0,2.0,30.39,NW,315,10.0,10.0,27,0.00,,,0.00,TxWx,2013-01-27 18:10:00,
2013-01-27 13:15:00,33.0,1.0,30.39,NE,45,5.0,10.0,27,0.00,,,0.00,TxWx,2013-01-27 18:15:00,
2013-01-27 13:21:00,33.0,1.0,30.39,WNW,292,3.0,6.0,27,0.00,,,0.00,TxWx,2013-01-27 18:21:00,
2013-01-27 13:26:00,33.0,1.0,30.39,NE,45,6.0,6.0,27,0.00,,,0.00,TxWx,2013-01-27 18:26:00,
2013-01-27 13:31:00,33.0,1.0,30.39,NNE,22,11.0,11.0,27,0.00,,,0.00,TxWx,2013-01-27 18:31:00,
2013-01-27 13:36:00,33.0,1.0,30.39,NNE,22,10.0,12.0,27,0.00,,,0.00,TxWx,2013-01-27 18:36:00,
2013-01-27 13:42:00,34.0,2.0,30.39,NNE,22,10.0,13.0,27,0.00,,,0.00,TxWx,2013-01-27 18:42:00,
2013-01-27 13:47:00,34.0,2.0,30.39,North,0,8.0,8.0,27,0.00,,,0.00,TxWx,2013-01-27 18:47:00,
2013-01-27 13:52:00,34.0,2.0,30.39,NNE,22,11.0,13.0,27,0.00,,,0.00,TxWx,2013-01-27 18:52:00,
2013-01-27 13:57:00,34.0,2.0,30.39,NNE,22,8.0,10.0,27,0.00,,,0.00,TxWx,2013-01-27 18:57:00,
2013-01-27 14:00:00,20.0,2.0,30.43,SSE,157,1.0,1.0,47,0.00,,,0.00,TxWx,2013-01-27 19:00:00,
2013-01-27 14:02:00,20.0,2.0,30.43,ENE,67,2.0,2.0,47,0.00,,,0.00,TxWx,2013-01-27 19:02:00,
2013-01-27 14:03:00,34.0,2.0,30.39,NNE,22,11.0,12.0,26,0.00,,,0.00,TxWx,2013-01-27 19:03:00,
2013-01-27 14:04:00,21.0,3.0,30.43,ENE,67,1.0,1.0,47,0.00,,,0.00,TxWx,2013-01-27 19:04:00,
2013-01-27 14:05:00,21.0,3.0,30.43,ENE,67,0.0,1.0,47,0.00,,,0.00,TxWx,2013-01-27 19:05:00,
2013-01-27 14:06:00,21.0,3.0,30.43,West,270,1.0,1.0,47,0.00,,,0.00,TxWx,2013-01-27 19:06:00,
2013-01-27 14:07:00,21.0,2.0,30.43,NW,315,1.0,1.0,46,0.00,,,0.00,TxWx,2013-01-27 19:07:00,
2013-01-27 14:08:00,34.0,2.0,30.39,NNE,22,4.0,5.0,26,0.00,,,0.00,TxWx,2013-01-27 19:08:00,
2013-01-27 14:09:00,21.0,3.0,30.43,NE,45,1.0,2.0,47,0.00,,,0.00,TxWx,2013-01-27 19:09:00,
2013-01-27 14:10:00,21.0,3.0,30.43,NNE,22,1.0,2.0,47,0.00,,,0.00,TxWx,2013-01-27 19:10:00,
2013-01-27 14:11:00,21.0,3.0,30.43,NNE,22,1.0,1.0,47,0.00,,,0.00,TxWx,2013-01-27 19:11:00,
2013-01-27 14:12:00,21.0,3.0,30.43,NNE,22,1.0,1.0,47,0.00,,,0.00,TxWx,2013-01-27 19:12:00,
2013-01-27 14:13:00,34.0,2.0,30.39,North,0,8.0,8.0,26,0.00,,,0.00,TxWx,2013-01-27 19:13:00,
2013-01-27 14:14:00,20.0,2.0,30.43,NNE,22,0.0,0.0,47,0.00,,,0.00,TxWx,2013-01-27 19:14:00,
2013-01-27 14:15:00,20.0,2.0,30.43,SW,225,0.0,1.0,48,0.00,,,0.00,TxWx,2013-01-27 19:15:00,
2013-01-27 14:16:00,20.0,2.0,30.43,WSW,247,1.0,1.0,48,0.00,,,0.00,TxWx,2013-01-27 19:16:00,
2013-01-27 14:17:00,20.0,2.0,30.43,WSW,247,1.0,1.0,48,0.00,,,0.00,TxWx,2013-01-27 19:17:00,
2013-01-27 14:18:00,34.0,1.0,30.39,North,0,9.0,11.0,26,0.00,,,0.00,TxWx,2013-01-27 19:18:00,
2013-01-27 14:19:00,20.0,3.0,30.43,SSW,202,1.0,1.0,49,0.00,,,0.00,TxWx,2013-01-27 19:19:00,
2013-01-27 14:20:00,20.0,3.0,30.43,SSW,202,0.0,1.0,49,0.00,,,0.00,TxWx,2013-01-27 19:20:00,
2013-01-27 14:21:00,20.0,3.0,30.43,SSW,202,1.0,1.0,49,0.00,,,0.00,TxWx,2013-01-27 19:21:00,
2013-01-27 14:22:00,20.0,3.0,30.43,SSW,202,1.0,1.0,49,0.00,,,0.00,TxWx,2013-01-27 19:22:00,
2013-01-27 14:23:00,20.0,3.0,30.43,SSW,202,1.0,1.0,49,0.00,,,0.00,TxWx,2013-01-27 19:23:00,
2013-01-27 14:24:00,34.0,2.0,30.39,NNE,22,12.0,12.0,26,0.00,,,0.00,TxWx,2013-01-27 19:24:00,
2013-01-27 14:25:00,20.0,3.0,30.43,South,180,1.0,1.0,49,0.00,,,0.00,TxWx,2013-01-27 19:25:00,
2013-01-27 14:26:00,20.0,3.0,30.43,South,180,0.0,0.0,49,0.00,,,0.00,TxWx,2013-01-27 19:26:00,
2013-01-27 14:27:00,20.0,3.0,30.43,South,180,0.0,0.0,49,0.00,,,0.00,TxWx,2013-01-27 19:27:00,
2013-01-27 14:28:00,20.0,3.0,30.43,South,180,0.0,0.0,49,0.00,,,0.00,TxWx,2013-01-27 19:28:00,
2013-01-27 14:29:00,34.0,2.0,30.39,NE,45,6.0,9.0,26,0.00,,,0.00,TxWx,2013-01-27 19:29:00,
2013-01-27 14:30:00,20.0,3.0,30.43,South,180,0.0,0.0,49,0.00,,,0.00,TxWx,2013-01-27 19:30:00,
2013-01-27 14:31:00,20.0,3.0,30.43,South,180,0.0,0.0,49,0.00,,,0.00,TxWx,2013-01-27 19:31:00,
2013-01-27 14:32:00,20.0,3.0,30.43,South,180,0.0,0.0,49,0.00,,,0.00,TxWx,2013-01-27 19:32:00,
2013-01-27 14:33:00,20.0,2.0,30.43,South,180,1.0,1.0,48,0.00,,,0.00,TxWx,2013-01-27 19:33:00,
2013-01-27 14:34:00,34.0,2.0,30.39,NNE,22,6.0,9.0,26,0.00,,,0.00,TxWx,2013-01-27 19:34:00,
2013-01-27 14:35:00,20.0,2.0,30.44,SW,225,1.0,1.0,48,0.00,,,0.00,TxWx,2013-01-27 19:35:00,
2013-01-27 14:36:00,20.0,2.0,30.44,SSW,202,1.0,2.0,48,0.00,,,0.00,TxWx,2013-01-27 19:36:00,
2013-01-27 14:37:00,20.0,2.0,30.44,SSW,202,2.0,2.0,48,0.00,,,0.00,TxWx,2013-01-27 19:37:00,
2013-01-27 14:38:00,20.0,2.0,30.43,SSW,202,1.0,1.0,48,0.00,,,0.00,TxWx,2013-01-27 19:38:00,
2013-01-27 14:39:00,34.0,2.0,30.39,North,0,8.0,8.0,26,0.00,,,0.00,TxWx,2013-01-27 19:39:00,
2013-01-27 14:40:00,20.0,3.0,30.43,South,180,2.0,3.0,50,0.00,,,0.00,TxWx,2013-01-27 19:40:00,
2013-01-27 14:42:00,20.0,3.0,30.43,South,180,2.0,3.0,50,0.00,,,0.00,TxWx,2013-01-27 19:42:00,
2013-01-27 14:43:00,20.0,3.0,30.44,South,180,2.0,2.0,49,0.00,,,0.00,TxWx,2013-01-27 19:43:00,
2013-01-27 14:45:00,34.0,2.0,30.39,NE,45,9.0,11.0,26,0.00,,,0.00,TxWx,2013-01-27 19:45:00,
2013-01-27 14:50:00,34.0,2.0,30.39,NNE,22,8.0,9.0,26,0.00,,,0.00,TxWx,2013-01-27 19:50:00,
2013-01-27 14:55:00,35.0,3.0,30.39,NNE,22,5.0,7.0,26,0.00,,,0.00,TxWx,2013-01-27 19:55:00,
2013-01-27 15:00:00,35.0,3.0,30.39,NNE,22,7.0,8.0,26,0.00,,,0.00,TxWx,2013-01-27 20:00:00,
2013-01-27 15:05:00,35.0,3.0,30.39,NNE,22,13.0,13.0,26,0.00,,,0.00,TxWx,2013-01-27 20:05:00,
2013-01-27 15:11:00,34.0,2.0,30.39,NNE,22,8.0,10.0,26,0.00,,,0.00,TxWx,2013-01-27 20:11:00,
2013-01-27 15:16:00,35.0,3.0,30.39,North,0,5.0,5.0,26,0.00,,,0.00,TxWx,2013-01-27 20:16:00,
2013-01-27 15:21:00,34.0,2.0,30.39,North,0,8.0,9.0,26,0.00,,,0.00,TxWx,2013-01-27 20:21:00,
2013-01-27 15:26:00,35.0,3.0,30.39,WNW,292,3.0,4.0,26,0.00,,,0.00,TxWx,2013-01-27 20:26:00,
2013-01-27 15:31:00,34.0,2.0,30.39,NNE,22,9.0,9.0,26,0.00,,,0.00,TxWx,2013-01-27 20:31:00,
2013-01-27 15:36:00,34.0,1.0,30.39,North,0,6.0,10.0,26,0.00,,,0.00,TxWx,2013-01-27 20:36:00,
2013-01-27 15:41:00,34.0,1.0,30.40,NNE,22,8.0,11.0,26,0.00,,,0.00,TxWx,2013-01-27 20:41:00,
2013-01-27 15:47:00,34.0,1.0,30.40,North,0,10.0,10.0,26,0.00,,,0.00,TxWx,2013-01-27 20:47:00,
2013-01-27 15:52:00,34.0,1.0,30.40,NNE,22,10.0,10.0,26,0.00,,,0.00,TxWx,2013-01-27 20:52:00,
2013-01-27 15:57:00,34.0,2.0,30.40,NNE,22,9.0,9.0,26,0.00,,,0.00,TxWx,2013-01-27 20:57:00,
2013-01-27 16:02:00,34.0,2.0,30.41,North,0,7.0,7.0,26,0.00,,,0.00,TxWx,2013-01-27 21:02:00,
2013-01-27 16:07:00,34.0,2.0,30.42,NNE,22,10.0,11.0,26,0.00,,,0.00,TxWx,2013-01-27 21:07:00,
2013-01-27 16:12:00,34.0,2.0,30.41,NNE,22,9.0,11.0,27,0.00,,,0.00,TxWx,2013-01-27 21:12:00,
2013-01-27 16:17:00,34.0,3.0,30.42,North,0,7.0,7.0,27,0.00,,,0.00,TxWx,2013-01-27 21:17:00,
2013-01-27 16:23:00,34.0,3.0,30.42,NE,45,5.0,6.0,27,0.00,,,0.00,TxWx,2013-01-27 21:23:00,
2013-01-27 16:28:00,33.0,2.0,30.41,NNE,22,8.0,10.0,27,0.00,,,0.00,TxWx,2013-01-27 21:28:00,
2013-01-27 16:33:00,33.0,2.0,30.41,SSE,157,2.0,4.0,28,0.00,,,0.00,TxWx,2013-01-27 21:33:00,
2013-01-27 16:38:00,33.0,2.0,30.41,NNE,22,4.0,6.0,28,0.00,,,0.00,TxWx,2013-01-27 21:38:00,
2013-01-27 16:43:00,33.0,2.0,30.41,ENE,67,5.0,6.0,28,0.00,,,0.00,TxWx,2013-01-27 21:43:00,
2013-01-27 16:48:00,32.0,2.0,30.42,North,0,5.0,6.0,28,0.00,,,0.00,TxWx,2013-01-27 21:48:00,
2013-01-27 16:53:00,32.0,2.0,30.42,WNW,292,2.0,3.0,29,0.00,,,0.00,TxWx,2013-01-27 21:53:00,
2013-01-27 16:58:00,32.0,2.0,30.42,North,0,4.0,4.0,29,0.00,,,0.00,TxWx,2013-01-27 21:58:00,
2013-01-27 17:03:00,32.0,2.0,30.42,NE,45,5.0,5.0,29,0.00,,,0.00,TxWx,2013-01-27 22:03:00,
2013-01-27 17:08:00,32.0,2.0,30.43,North,0,3.0,3.0,29,0.00,,,0.00,TxWx,2013-01-27 22:08:00,
2013-01-27 17:14:00,32.0,2.0,30.42,NNW,337,3.0,3.0,29,0.00,,,0.00,TxWx,2013-01-27 22:14:00,
2013-01-27 17:19:00,32.0,3.0,30.43,NNE,22,3.0,3.0,30,0.00,,,0.00,TxWx,2013-01-27 22:19:00,
2013-01-27 17:24:00,31.0,2.0,30.42,NNW,337,3.0,4.0,30,0.00,,,0.00,TxWx,2013-01-27 22:24:00,
2013-01-27 17:30:00,31.0,3.0,30.42,NE,45,2.0,3.0,31,0.00,,,0.00,TxWx,2013-01-27 22:30:00,
2013-01-27 17:35:00,31.0,3.0,30.42,NNW,337,4.0,4.0,31,0.00,,,0.00,TxWx,2013-01-27 22:35:00,
2013-01-27 17:41:00,30.0,2.0,30.42,NNE,22,4.0,4.0,32,0.00,,,0.00,TxWx,2013-01-27 22:41:00,
2013-01-27 17:46:00,30.0,3.0,30.42,NNE,22,3.0,5.0,32,0.00,,,0.00,TxWx,2013-01-27 22:46:00,
2013-01-27 17:51:00,30.0,2.0,30.42,North,0,5.0,5.0,32,0.00,,,0.00,TxWx,2013-01-27 22:51:00,
2013-01-27 17:56:00,30.0,2.0,30.42,ENE,67,4.0,5.0,31,0.00,,,0.00,TxWx,2013-01-27 22:56:00,
2013-01-27 18:02:00,30.0,2.0,30.42,North,0,2.0,5.0,31,0.00,,,0.00,TxWx,2013-01-27 23:02:00,
2013-01-27 18:07:00,30.0,2.0,30.42,North,0,4.0,5.0,31,0.00,,,0.00,TxWx,2013-01-27 23:07:00,
2013-01-27 18:12:00,30.0,2.0,30.43,NNE,22,4.0,5.0,31,0.00,,,0.00,TxWx,2013-01-27 23:12:00,
2013-01-27 18:17:00,30.0,2.0,30.43,NNE,22,3.0,3.0,31,0.00,,,0.00,TxWx,2013-01-27 23:17:00,
2013-01-27 18:22:00,30.0,2.0,30.44,NNE,22,1.0,2.0,31,0.00,,,0.00,TxWx,2013-01-27 23:22:00,
2013-01-27 18:27:00,30.0,2.0,30.44,North,0,1.0,1.0,32,0.00,,,0.00,TxWx,2013-01-27 23:27:00,
2013-01-27 18:32:00,30.0,3.0,30.44,ENE,67,1.0,2.0,32,0.00,,,0.00,TxWx,2013-01-27 23:32:00,
2013-01-27 18:37:00,29.0,2.0,30.44,NNE,22,3.0,3.0,33,0.00,,,0.00,TxWx,2013-01-27 23:37:00,
2013-01-27 18:43:00,29.0,3.0,30.44,NNE,22,3.0,4.0,34,0.00,,,0.00,TxWx,2013-01-27 23:43:00,
2013-01-27 18:48:00,29.0,3.0,30.44,NNE,22,5.0,5.0,34,0.00,,,0.00,TxWx,2013-01-27 23:48:00,
2013-01-27 18:53:00,29.0,3.0,30.44,ENE,67,3.0,5.0,34,0.00,,,0.00,TxWx,2013-01-27 23:53:00,
2013-01-27 18:59:00,29.0,2.0,30.44,NE,45,5.0,5.0,33,0.00,,,0.00,TxWx,2013-01-27 23:59:00,
2013-01-27 19:04:00,29.0,2.0,30.44,North,0,8.0,8.0,33,0.00,,,0.00,TxWx,2013-01-28 00:04:00,
2013-01-27 19:09:00,29.0,2.0,30.44,NNE,22,5.0,5.0,33,0.00,,,0.00,TxWx,2013-01-28 00:09:00,
2013-01-27 19:15:00,29.0,2.0,30.44,ENE,67,4.0,5.0,33,0.00,,,0.00,TxWx,2013-01-28 00:15:00,
2013-01-27 19:20:00,29.0,3.0,30.44,North,0,5.0,6.0,34,0.00,,,0.00,TxWx,2013-01-28 00:20:00,
2013-01-27 19:25:00,29.0,3.0,30.44,NNE,22,3.0,4.0,35,0.00,,,0.00,TxWx,2013-01-28 00:25:00,
2013-01-27 19:30:00,28.0,3.0,30.44,NNE,22,4.0,4.0,35,0.00,,,0.00,TxWx,2013-01-28 00:30:00,
2013-01-27 19:35:00,28.0,3.0,30.44,ENE,67,2.0,3.0,35,0.00,,,0.00,TxWx,2013-01-28 00:35:00,
2013-01-27 19:41:00,28.0,3.0,30.44,ENE,67,2.0,2.0,35,0.00,,,0.00,TxWx,2013-01-28 00:41:00,
2013-01-27 19:46:00,28.0,3.0,30.44,NNW,337,3.0,3.0,35,0.00,,,0.00,TxWx,2013-01-28 00:46:00,
2013-01-27 19:51:00,28.0,3.0,30.44,WNW,292,2.0,3.0,35,0.00,,,0.00,TxWx,2013-01-28 00:51:00,
2013-01-27 19:56:00,27.0,2.0,30.44,NNW,337,3.0,3.0,35,0.00,,,0.00,TxWx,2013-01-28 00:56:00,
2013-01-27 20:01:00,27.0,2.0,30.44,NNW,337,1.0,1.0,35,0.00,,,0.00,TxWx,2013-01-28 01:01:00,
2013-01-27 20:07:00,27.0,2.0,30.44,NNE,22,3.0,5.0,35,0.00,,,0.00,TxWx,2013-01-28 01:07:00,
2013-01-27 20:12:00,27.0,2.0,30.43,NNE,22,3.0,3.0,35,0.00,,,0.00,TxWx,2013-01-28 01:12:00,
2013-01-27 20:17:00,27.0,2.0,30.43,NNE,22,5.0,5.0,35,0.00,,,0.00,TxWx,2013-01-28 01:17:00,
2013-01-27 20:22:00,27.0,2.0,30.43,North,0,3.0,4.0,35,0.00,,,0.00,TxWx,2013-01-28 01:22:00,
2013-01-27 20:28:00,27.0,2.0,30.43,ENE,67,2.0,3.0,36,0.00,,,0.00,TxWx,2013-01-28 01:28:00,
2013-01-27 20:33:00,27.0,3.0,30.44,South,180,0.0,0.0,36,0.00,,,0.00,TxWx,2013-01-28 01:33:00,
2013-01-27 20:38:00,26.0,2.0,30.44,North,0,1.0,1.0,36,0.00,,,0.00,TxWx,2013-01-28 01:38:00,
2013-01-27 20:43:00,26.0,2.0,30.43,NE,45,3.0,3.0,36,0.00,,,0.00,TxWx,2013-01-28 01:43:00,
2013-01-27 20:48:00,26.0,2.0,30.43,North,0,1.0,1.0,36,0.00,,,0.00,TxWx,2013-01-28 01:48:00,
2013-01-27 20:54:00,26.0,1.0,30.43,ENE,67,2.0,2.0,36,0.00,,,0.00,TxWx,2013-01-28 01:54:00,
2013-01-27 20:59:00,26.0,1.0,30.43,NE,45,3.0,3.0,35,0.00,,,0.00,TxWx,2013-01-28 01:59:00,
2013-01-27 21:05:00,26.0,2.0,30.44,North,0,2.0,2.0,36,0.00,,,0.00,TxWx,2013-01-28 02:05:00,
2013-01-27 21:10:00,25.0,1.0,30.43,NE,45,1.0,1.0,37,0.00,,,0.00,TxWx,2013-01-28 02:10:00,
2013-01-27 21:15:00,25.0,2.0,30.43,ENE,67,1.0,1.0,38,0.00,,,0.00,TxWx,2013-01-28 02:15:00,
2013-01-27 21:20:00,25.0,2.0,30.44,SSW,202,2.0,2.0,39,0.00,,,0.00,TxWx,2013-01-28 02:20:00,
2013-01-27 21:26:00,24.0,2.0,30.44,SSE,157,1.0,1.0,39,0.00,,,0.00,TxWx,2013-01-28 02:26:00,
2013-01-27 21:31:00,24.0,1.0,30.44,SE,135,0.0,0.0,39,0.00,,,0.00,TxWx,2013-01-28 02:31:00,
2013-01-27 21:36:00,24.0,1.0,30.44,NE,45,0.0,0.0,39,0.00,,,0.00,TxWx,2013-01-28 02:36:00,
2013-01-27 21:41:00,24.0,2.0,30.44,NE,45,3.0,3.0,39,0.00,,,0.00,TxWx,2013-01-28 02:41:00,
2013-01-27 21:46:00,24.0,2.0,30.44,North,0,2.0,3.0,39,0.00,,,0.00,TxWx,2013-01-28 02:46:00,
2013-01-27 21:52:00,24.0,2.0,30.44,West,270,1.0,2.0,40,0.00,,,0.00,TxWx,2013-01-28 02:52:00,
2013-01-27 21:57:00,23.0,2.0,30.44,SSE,157,1.0,1.0,42,0.00,,,0.00,TxWx,2013-01-28 02:57:00,
2013-01-27 22:02:00,23.0,3.0,30.44,SE,135,1.0,1.0,43,0.00,,,0.00,TxWx,2013-01-28 03:02:00,
2013-01-27 22:08:00,22.0,1.0,30.44,SW,225,1.0,1.0,42,0.00,,,0.00,TxWx,2013-01-28 03:08:00,
2013-01-27 22:13:00,22.0,2.0,30.44,WSW,247,1.0,1.0,43,0.00,,,0.00,TxWx,2013-01-28 03:13:00,
2013-01-27 22:18:00,22.0,2.0,30.44,WSW,247,0.0,0.0,43,0.00,,,0.00,TxWx,2013-01-28 03:18:00,
2013-01-27 22:23:00,22.0,2.0,30.44,North,0,0.0,1.0,43,0.00,,,0.00,TxWx,2013-01-28 03:23:00,
2013-01-27 22:29:00,21.0,1.0,30.44,West,270,0.0,0.0,44,0.00,,,0.00,TxWx,2013-01-28 03:29:00,
2013-01-27 22:34:00,21.0,2.0,30.43,SSW,202,1.0,1.0,45,0.00,,,0.00,TxWx,2013-01-28 03:34:00,
2013-01-27 22:39:00,21.0,2.0,30.43,SSW,202,0.0,0.0,45,0.00,,,0.00,TxWx,2013-01-28 03:39:00,
2013-01-27 22:45:00,21.0,2.0,30.43,SSE,157,0.0,0.0,46,0.00,,,0.00,TxWx,2013-01-28 03:45:00,
2013-01-27 22:50:00,21.0,2.0,30.44,SSE,157,0.0,0.0,45,0.00,,,0.00,TxWx,2013-01-28 03:50:00,
2013-01-27 22:55:00,21.0,2.0,30.44,NE,45,0.0,0.0,45,0.00,,,0.00,TxWx,2013-01-28 03:55:00,
2013-01-27 23:00:00,21.0,2.0,30.43,North,0,1.0,1.0,45,0.00,,,0.00,TxWx,2013-01-28 04:00:00,
2013-01-27 23:06:00,21.0,2.0,30.44,NNW,337,0.0,1.0,45,0.00,,,0.00,TxWx,2013-01-28 04:06:00,
2013-01-27 23:11:00,22.0,2.0,30.44,NNW,337,0.0,0.0,44,0.00,,,0.00,TxWx,2013-01-28 04:11:00,
2013-01-27 23:17:00,21.0,1.0,30.43,NNW,337,0.0,0.0,44,0.00,,,0.00,TxWx,2013-01-28 04:17:00,
2013-01-27 23:22:00,21.0,2.0,30.43,NNW,337,0.0,0.0,45,0.00,,,0.00,TxWx,2013-01-28 04:22:00,
2013-01-27 23:27:00,20.0,2.0,30.43,NNW,337,0.0,1.0,46,0.00,,,0.00,TxWx,2013-01-28 04:27:00,
2013-01-27 23:33:00,20.0,2.0,30.43,NNW,337,0.0,0.0,47,0.00,,,0.00,TxWx,2013-01-28 04:33:00,
2013-01-27 23:38:00,20.0,2.0,30.43,NNW,337,0.0,0.0,48,0.00,,,0.00,TxWx,2013-01-28 04:38:00,
2013-01-27 23:43:00,20.0,2.0,30.43,South,180,1.0,1.0,47,0.00,,,0.00,TxWx,2013-01-28 04:43:00,
2013-01-27 23:49:00,20.0,2.0,30.43,ENE,67,1.0,1.0,47,0.00,,,0.00,TxWx,2013-01-28 04:49:00,
2013-01-27 23:54:00,20.0,2.0,30.43,South,180,1.0,1.0,47,0.00,,,0.00,TxWx,2013-01-28 04:54:00,
2013-01-27 23:59:00,20.0,2.0,30.44,South,180,1.0,1.0,47,0.00,,,0.00,TxWx,2013-01-28 04:59:00,